Location: Berville
(49.1893°N, 2.0748°E)
Time: 20:22:35
(UTC+00:00)

FENGYUN 1C DEB - Pass Details

Date: 28 February 2024
Orbit: 768 x 960 km, 99.0° (Epoch: 13 April)

Event Time Altitude Azimuth Distance (km) Brightness Sun altitude
Exits shadow 18:42:28 13° 68° (ENE) 2,476 ? -12.2°
Maximum altitude 18:44:11 15° 49° (NE) 2,367 ? -12.5°
Drops below altitude 10° 18:47:16 10° 18° (NNE) 2,679 ? -13.0°
Sets 18:50:51 0° 356° (N) 3,601 ? -13.6°
